STARLINK-30100 (57623 NORAD) Tracking and Keplerian Element Data

This shows tracking and keplerian element data for the satellite.

Feedback or suggestion? Click here.




ElementValue
Catalog57623
NameSTARLINK-30100
Epoch Orbit376
Epoch Day239.16667824
Epoch Year2023
RAAN77.7395
Inclination43.0008
Eccentricity4.62E-05
Argument of Perigee197.9678
Mean Anonmoly57.3082
Mean Motion15.74491018
Decay Rate-0.00870356
L11 57623U 23119X 23239.16667824 -.00870356 00000+0 -64301-2 0 9994
L22 57623 43.0008 77.7395 0000462 197.9678 57.3082 15.74491018 3768



Live tracking and technical data element details for STARLINK-30100 (NORAD 57623). STARLINK-30100 can be tracked NOW for your location showing map with azimuth and elevation plus other details from your city location.







IsCatalogInMostPopularTable: catalog: 57623, numindb: 6
Update: records affected: 1



GetName: 57623 STARLINK-30100

Hit Count: updated at: Tue, 26 Sep 2023 13:42:25 GMT